SL-14 DEB, 45319

Orbit data source: Space-Track

SL-14 DEB, 45319 is space debris in LEO originally from a launch on Thu, 15 Aug 1991 UTC launched from the Plesetsk Missile And Space Complex (PKMTR). Debris objects in space refer to the collection of defunct objects orbiting the Earth. Examples of debris include non-operational satellites, rocket bodies, and fragments generated from explosions, collisions, or faulty payload assembly.

Loading next visibility...
Identifier
45319, 1991-056BH
Orbit
LEO
Country
Flag of CISCIS
Related business
Manufacturer
Unknown
Mission
Spacecraft
Bus & Motor
Unknown
Mass
Unknown
Launch date (UTC)
1991-08-15 (35 years ago)
Launch vehicle
Unknown
Launch site
Plesetsk Missile And Space Complex (PKMTR)
Object type
Payload
Rocket body
Debris
Shape & HBR
Unknown shape, 0.1 m
Radar Cross Section
Small (<0.1 m²)

Expand to show TLE details & history
Last TLE update: 1 day ago

TLE from 1 day ago
0 SL-14 DEB
1 45319U 91056BH  26167.25523080  .00001079  00000-0  19412-2 0  9996
2 45319  82.5782  90.3069 0076661 224.2006 135.2989 13.39537067307129
Epoch: 2026-06-16T06:07Z
TLE epoch observation values (Epoch: 2026-06-16T06:07:31.941Z)
Latitude
-0.00002°
Longitude
93.89392°
Altitude
1,154.876 km
Speed
7.256 km/s
True Right ascension
06h 01m 13s
True Declination
0° 00' 00"
Sunlit
Object was in daylight at epoch
Visualization orbit readout
Latitude
Unknown
Longitude
Unknown
Altitude
Unknown
Speed
Unknown
Apparent Right ascension
Unknown
Apparent Declination
Unknown
Sunlit
N/A
Visualization observer readout
Local Sidereal Time
20:09:10
Azimuth
Unknown
Elevation
Unknown
Doppler factor
Unknown
Orbital elements
Apogee altitude
1,165.607 km
Perigee altitude
1,050.825 km
Semi-major axis
7,486.353 km
Eccentricity
0.00767
Inclination
82.5782°
RAAN
90.3069°
Arg. of periapsis
224.2006°
True anomaly
135.91263°
Mean anomaly
135.2989°
Eccentric anomaly
135.60618°
Mean motion
3.35072 °/min
Orbital period
107.44 mins
BSTAR
0.0019412
Loading maneuver chart data...
Computing Atmospheric mass density...
Loading historical data...
Loading historical data...
Loading historical data...
Loading historical data...
Loading historical data...
Loading historical data...
Loading historical data...

Documentation

Showing up to 5 results
|